Volver al catálogo

TIROS 6 DEB

ActivoLEO
NORAD 29006·DEBRIS·🇺🇸 United States

Lanzado Sep 18, 1962 desde Cape Canaveral Space Force Station

Loading…

Próximos Pases (próximas 24 horas)

TLE

ActualizadoSource: Space-Track

Época: Sep 14, 2026, 21:20 UTC

1 29006U 62047F   26257.88956267  .00000402  00000-0  69754-4 0  9990
2 29006  58.3104  39.3303 0015208 104.7342 255.5388 14.86025182714968

Sigue TIROS 6 DEB en tiempo real con AllMySat

Download on the App Store